www.pogodaiklimat.ru

Погода и климат >> Архив погоды >> Россия >> Астраханская область >> Зеленга


ПОГОДА в Зеленге

  • Прогноз погоды в Зеленге
  • Монитор погоды в Зеленге

АРХИВ ПОГОДЫ в Зеленге

Время (UTC), дата Ветер
(напр.,м/с)
 
Видим.   Явления Облачность Т
(С)
Тd
(С)
f
(%)
Тe
(С)
Тes
(С)
Комфортность P
(гПа)
Po
(гПа)
Тmin
(С)
Tmax
(С)
R
(мм)
R24
(мм)
S
(см)
12 13.05 Ю 2 20 км 6/0
[Ac lent]
+26.6 +20.9 71 +33 +39 очень
душно
1011.2 1013.8
15 13.05 С 1 20 км 6/0
[Ac trans]
+25.0 +16.6 60 +29 +29 душно 1011.9 1014.5 +28.0
18 13.05 СЗ 1 4000 м дымка ясно +18.7 +16.4 86 +21 +21 комфорт 1013.5 1016.2
21 13.05 СЗ 1 4000 м дымка ясно +17.2 +15.5 90 +18 +18 1013.5 1016.3
00 14.05 З 2 4000 м дымка 8/8 600 м
[Sc]
+17.0 +15.5 91 +17 +17 1013.7 1016.5
03 14.05 ЮЗ 2 4000 м дымка 8/8 600 м
[Sc]
+16.8 +15.1 90 +17 +17 1013.8 1016.6 +16.7
06 14.05 З 3 20 км 6/0
[Ac trans]
+20.8 +15.8 73 +24 +31 комфорт 1014.1 1016.8
09 14.05 З 4 20 км 8/8 600 м
[Cu med, cong]
+25.3 +14.2 50 +28 +30 жарко 1013.7 1016.4
12 14.05 З 5 20 км 6/6 600 м
[Cu med, cong]
+26.2 +12.4 42 +28 +30 жарко 1012.9 1015.5
15 14.05 З 4 20 км 6/6 600 м
[Cu med, cong]
+25.4 +13.3 47 +27 +28 жарко 1012.0 1014.6 +27.5
18 14.05 З 2 4000 м дымка 10/10 600 м
[Sc]
+18.4 +16.1 86 +20 +20 1013.0 1015.7
21 14.05 З 2 4000 м дымка {ливн. осадки} 6/6 600 м
[Sc]
+18.0 +16.8 93 +19 +19 1012.8 1015.5
00 15.05 З 3 4000 м дымка {ливн. осадки} 6/6 600 м
[Sc]
+17.0 +15.8 93 +17 +17 1012.4 1015.2
03 15.05 З 2 4000 м дымка 8/8 600 м
[Sc]
+16.2 +15.2 94 +16 +17 1012.5 1015.3 +16.1 5
06 15.05 З 2 4000 м дымка 3/3 600 м
[Sc]
+20.1 +18.0 88 +24 +32 комфорт 1012.9 1015.6
09 15.05 З 2 20 км 4/4 600 м
[Cu med, cong]
+25.0 +16.8 60 +29 +39 душно 1011.8 1014.4
12 15.05 ЮЗ 2 20 км 8/8 600 м
[Cu med, cong]
+25.9 +18.7 65 +31 +33 очень
душно
1010.7 1013.3
15 15.05 В 2 20 км 6/6 600 м
[Cu med, cong]
+23.5 +17.2 68 +27 +28 душно 1010.7 1013.3 +27.4
18 15.05 СВ 2 20 км 4/4 600 м
[Sc]
+21.2 +18.2 83 +25 +25 комфорт 1011.4 1014.1
21 15.05 СВ 2 4000 м дымка ясно +18.6 +17.6 94 +20 +20 1011.3 1014.0
00 16.05 СВ 2 4000 м дымка ясно +17.1 +16.6 97 +17 +17 1011.9 1014.6
03 16.05 В 2 500 м туман ясно +17.3 +17.1 99 +18 +20 1012.7 1015.5 +17.0
06 16.05 Ю 2 20 км {туман} ясно +23.4 +18.7 75 +30 +42 очень
душно
1014.0 1016.7
09 16.05 ЮВ 1 20 км ясно +26.5 +16.1 53 +30 +51 опасность
солнечного
удара
1014.3 1016.9
12 16.05 ЮВ 1 20 км ясно +27.0 +17.1 55 +31 +43 душно 1014.4 1017.0
15 16.05 Ю 2 20 км ясно +25.2 +14.5 51 +28 +29 жарко 1014.0 1016.7 +28.5
18 16.05 ЮЗ 1 4000 м дымка ясно +21.8 +19.6 87 +27 +27 душно 1014.5 1017.2
21 16.05 З 1 4000 м дымка ясно +19.6 +17.8 89 +23 +23 комфорт 1014.3 1017.0
00 17.05 СЗ 1 4000 м дымка ясно +18.0 +16.5 91 +19 +19 1014.3 1017.0
03 17.05 СЗ 2 4000 м дымка ясно +18.3 +16.5 89 +19 +21 1014.2 1016.9 +17.9
06 17.05 СЗ 2 20 км ясно +25.1 +16.3 58 +28 +41 жарко 1014.8 1017.5
09 17.05 ЮЗ 2 20 км ясно +30.0 +15.2 41 +33 +51 опасность
солнечного
удара
1014.4 1017.0
12 17.05 ЮЗ 3 20 км ясно +29.6 +15.5 42 +32 +41 душно 1013.8 1016.4
15 17.05 ЮЗ 2 20 км 6/0
[Cs]
+27.2 +16.8 53 +31 +32 душно 1012.6 1015.2 +31.5
18 17.05 З 2 4000 м дымка ясно +22.7 +20.1 85 +29 +29 очень
душно
1012.5 1015.2
21 17.05 С 3 20 км 3/0
[Ac trans]
+21.6 +17.0 75 +26 +26 душно 1013.3 1016.0
00 18.05 СВ 5 20 км 4/0
[Ac trans]
+18.8 +11.8 64 +19 +19 1013.6 1016.3
03 18.05 В 6-10
{10}
20 км 6/0
[Cs]
+16.9 +9.7 63 +16 +17 1014.2 1016.9 +16.8
06 18.05 В 5 20 км 6/0
[Ac lent]
+19.0 +12.4 66 +20 +23 1014.3 1017.0
09 18.05 В 4 20 км 6/0
[Ac lent]
+20.8 +11.9 57 +23 +29 комфорт 1014.4 1017.1
12 18.05 ЮВ 3 20 км ясно +22.0 +12.5 55 +25 +33 комфорт 1013.7 1016.4
15 18.05 ЮВ 2 20 км ясно +20.8 +13.1 61 +24 +25 комфорт 1012.4 1015.1 +23.1
18 18.05 В 1 20 км ясно +17.7 +12.5 72 +19 +19 1012.6 1015.3
21 18.05 СВ 1 4000 м дымка ясно +17.0 +14.9 87 +18 +18 1012.0 1014.7
00 19.05 СВ 3 4000 м дымка ясно +16.6 +14.9 90 +16 +16 1011.2 1013.9
03 19.05 В 3 20 км ясно +17.1 +13.6 80 +17 +19 1011.0 1013.7 +16.5
06 19.05 В 4 20 км ясно +21.4 +12.2 56 +24 +32 комфорт 1010.7 1013.4
09 19.05 В 3 20 км ясно +23.7 +11.0 45 +25 +40 комфорт 1010.5 1013.1
12 19.05 ЮВ 3 20 км ясно +24.8 +12.9 48 +27 +35 жарко 1010.6 1013.2
15 19.05 ЮВ 2 20 км ясно +22.9 +13.7 56 +26 +27 жарко 1010.1 1012.7 +26.4
18 19.05 З 2 20 км ясно +19.7 +16.9 84 +23 +23 комфорт 1011.1 1013.8
21 19.05 З 2 20 км дымка ясно +18.4 +16.7 90 +20 +20 1011.3 1014.0
00 20.05 С 3 20 км ясно +17.2 +14.2 83 +17 +17 1011.4 1014.1
03 20.05 С 2 20 км 6/0
[Ac lent]
+17.0 +12.5 75 +17 +18 1012.3 1015.1 +16.9
06 20.05 С 4 20 км 8/0
[Cs]
+20.1 +8.5 47 +21 +28 комфорт 1013.9 1016.6
09 20.05 С 5 20 км 6/0
[Cs]
+22.0 +7.9 40 +23 +31 комфорт 1015.6 1018.3

 

Местоположение метеостанции Зеленга (Астраханская область, Россия): широта 46.18 долгота 48.62 высота над уровнем моря -22 м.

В архиве по умолчанию представлена погода в Зеленге за последнюю неделю. Архивные данные за месяц целиком и за предыдущие месяцы, начиная с января 2011 года, Вы можете получить, выбрав интересующий диапазон дат из раскрывающегося списка и нажав кнопку "Ввод!".


*Определитесь, кто Вы:
робот инопланетянин человек

Внимание! Время в таблицах - всемирное. Для получения местного времени необходимо прибавить поправку, которая равна 4 ч.

Смотрите также архив погоды в соседних городах и на ближайших метеорологических станциях:

Погода в Астрахани (Астраханская область, Россия) (50 км)
Погода в Ганюшкино (Атырауская область, Казахстан) (68 км)
Погода в Досанге (Астраханская область, Россия) (98 км)
Погода в Лимане (Астраханская область, Россия) (116 км)
Погода в Исатай (Атырауская область, Казахстан) (131 км)
Погода в Лагани (Калмыкия, Россия) (131 км)
Погода на Кулалы Острове (Мангистауская область, Казахстан) (170 км)
Погода в Харабали (Астраханская область, Россия) (171 км)
Погода в Жанауштогане (Атырауская область, Казахстан) (192 км)
Погода в Утте (Калмыкия, Россия) (201 км)

Пояснения к столбцам:

Ветер - указаны скорость ветра в м/с - средняя за 10 мин, порывы в срок и между сроками (в фигурных скобках) и направление, откуда дует ветер: С - северный, СВ - северо-восточный, В - восточный, ЮВ - юго-восточный, Ю - южный, ЮЗ - юго-западный, З - западный, СЗ - северо-западный.
Видимость - горизонтальная дальность видимости в метрах или километрах. При видимости от 1 до 10 км при отсутствии осадков обычно наблюдается дымка, при ухудшении видимости до 1 км и менее - туман. В сухую погоду видимость может ухудшаться дымом, пылью или мглою.
Явления - указаны атмосферные явления, наблюдавшиеся в срок или в последний час перед сроком; фигурными скобками обозначены явления, наблюдавшиеся между сроками (за 1-3 часа до срока); квадратными скобками обозначены град или гололедные отложения с указанием их диаметра в мм.
Облачность - указаны через наклонную черту общая и нижняя облачность в баллах и высота нижней границы облаков в метрах; квадратными скобками обозначены формы облаков: Ci - перистые, Cs - перисто-слоистые, Cc - перисто-кучевые, Ac - высококучевые, As - высокослоистые, Sc - слоисто-кучевые, Ns - слоисто-дождевые, Cu - кучевые, Cb - кучево-дождевые. Подробнее классификацию облаков см. в Атласе облаков (PDF).
T - Температура воздуха - температура, измеренная на высоте 2 м над землей.
Td - Температура точки росы - температура, при понижении до которой содержащийся в воздухе водяной пар достигнет насыщения.
f - Относительная влажность воздуха - влажноcть воздуха, измеренная на высоте 2 м над землей.
Te - Эффективная температура - температура, которую ощущает одетый по сезону человек в тени. Характеристика душности погоды. При расчете учитывается влияние влажности воздуха и скорости ветра на теплоощущения человека.
Tes - Эффективная температура на солнце - температура, которую ощущает человек, с поправкой на солнечный нагрев. Характеристика знойности погоды. Зависит от высоты солнца над горизонтом, облачности и скорости ветра. Ночью, в пасмурную погоду, а также при ветре 12 м/с и более поправка равна нулю.
P - Атмосферное давление - приведенное к уровню моря атмосферное давление.
Po - Атмосферное давление - измеренное на уровне метеостанции атмосферное давление.
Tmin - Минимальная температура - минимум температуры воздуха на высоте 2 м над землей.
Tmax - Максимальная температура - максимум температуры воздуха на высоте 2 м над землей.
R - Количество осадков - Количество выпавших осадков за период времени, мм. При наведении курсора мыши на число - период времени, за который выпало указанное количество осадков.
R24 - Количество осадков - Количество выпавших осадков за 24 часа, мм.
S - Снежный покров - Высота снежного покрова, см. При наведении курсора мыши на число - состояние снежного покрова и степень покрытия местности в баллах.